Temperature
20 19 20 19 19 20 20 20 19 19 19 19 19 19 19 19 19 19 18 18 18 18 18 18 18 18 18 18 18 18 18 18 18 18 17 17 17 17 17 17 17 16 17
20 19 20 19 19 19 20 20 20 19 19 19 19 19 19 19 19 18 18 18 18 18 18 18 18 18 18 18 18 18 18 17 17 17 17 17 17 17 17 17 16 16 17
20 19 20 20 19 19 20 20 20 19 19 19 19 19 19 18 18 18 18 18 18 18 18 18 18 18 18 18 18 18 17 17 17 17 17 16 17 17 17 17 17 17 17
20 19 19 20 20 20 20 20 19 19 19 19 19 19 19 18 18 18 18 18 18 18 18 18 18 18 18 18 18 17 17 17 17 17 17 16 16 17 17 17 17 17 17
20 19 19 20 20 20 20 19 19 19 19 19 19 19 19 18 18 18 18 18 18 18 18 18 18 18 18 18 18 17 17 17 17 17 17 16 16 17 17 17 17 17 17
19 19 19 20 20 19 19 19 19 19 19 19 19 18 18 18 18 18 18 18 18 18 18 18 18 18 18 18 18 17 17 17 17 17 16 16 16 17 17 17 17 17 17
20 19 19 20 20 19 19 19 19 19 19 19 19 18 18 18 18 18 18 18 18 18 18 18 18 18 18 18 17 17 17 17 17 17 16 16 17 17 17 17 17 17 16
20 19 19 20 20 19 19 19 19 19 19 19 19 18 18 18 18 18 18 18 18 18 18 18 18 17 17 17 17 17 17 17 17 17 16 16 17 17 17 17 17 17 17
20 19 18 19 19 19 19 19 19 19 19 19 19 18 18 18 18 18 18 18 18 18 18 18 17 17 17 17 17 17 18 17 17 17 17 16 17 17 17 17 17 17 17
20 19 18 18 18 18 19 19 19 19 19 19 18 18 18 18 18 18 17 18 18 18 18 18 17 17 17 17 17 17 18 17 18 17 17 17 17 17 17 17 17 16 16
19 19 19 18 18 18 18 18 18 18 18 18 18 18 18 17 17 17 17 17 17 17 17 17 17 17 17 17 17 17 17 17 17 17 17 17 17 17 17 16 16 16 16
19 19 19 18 18 18 18 18 18 18 18 17 17 18 17 17 17 17 17 18 17 17 17 17 17 17 17 17 17 17 17 17 18 17 17 17 17 17 16 16 16 16 16
19 19 19 18 18 18 18 18 17 17 17 17 17 17 17 17 17 17 17 17 17 17 17 17 17 17 17 17 17 17 17 18 18 17 17 17 17 17 16 16 16 16 16
18 18 18 18 18 18 18 18 18 17 17 17 17 17 17 17 17 17 17 16 17 17 16 16 16 16 16 16 17 17 17 17 17 17 17 17 17 16 16 16 16 16 16
18 18 18 18 18 18 18 18 18 18 18 17 18 17 17 17 17 17 17 17 16 16 16 16 16 16 16 16 17 17 17 17 17 17 17 17 17 16 16 16 16 16 16
18 18 18 18 18 18 18 18 18 18 18 17 17 17 17 17 17 17 17 17 16 16 16 16 16 16 16 16 16 16 16 16 16 16 16 16 16 16 16 16 16 16 16
18 18 18 18 18 18 18 18 18 17 17 17 17 17 17 17 17 17 17 16 16 16 16 16 16 16 16 16 16 16 16 16 16 16 16 16 16 16 16 16 16 16 16
18 18 18 17 17 18 18 17 17 17 17 17 17 17 17 17 17 17 16 16 16 16 16 16 16 16 16 16 16 16 16 16 16 16 16 16 16 16 16 16 16 16 16
18 18 17 17 17 18 17 17 17 17 17 17 17 17 17 17 17 16 16 16 16 16 16 16 16 16 16 16 16 16 16 16 16 16 16 16 16 16 15 16 16 16 16
17 17 17 17 17 17 17 17 17 17 17 17 17 17 17 17 16 16 16 16 16 16 16 16 15 15 16 16 17 16 16 16 16 16 16 16 16 16 16 15 15 15 16
17 17 17 17 17 17 17 17 17 17 17 17 17 17 17 16 16 16 16 16 16 16 15 15 15 15 16 16 16 16 16 16 16 16 16 16 16 16 15 15 15 15 15
17 17 17 17 17 17 17 17 17 17 17 17 17 17 17 16 16 16 16 16 16 15 15 15 15 16 16 16 17 17 17 17 16 16 16 16 16 16 16 15 15 15 15
17 17 17 17 17 17 17 17 17 17 17 17 17 17 16 16 16 16 16 16 15 15 15 15 15 15 16 16 16 17 18 18 17 16 16 16 16 16 16 15 15 15 15
17 17 17 17 17 17 17 17 17 17 17 17 17 17 17 16 16 16 16 15 15 15 15 15 15 15 15 16 16 16 16 17 18 17 16 16 15 15 15 16 15 15 15
17 17 17 17 17 17 17 17 17 17 17 17 17 17 17 16 16 16 16 15 15 15 15 15 15 15 15 16 16 16 16 16 17 17 18 17 16 16 16 15 15 15 15
17 17 17 17 17 17 17 17 17 17 17 17 17 17 17 16 16 16 15 15 15 15 15 15 15 15 15 15 15 16 16 17 17 17 17 17 17 16 15 15 15 15 15
Wind_Speed
16 19 20 17 16 17 17 17 18 18 17 17 16 15 14 13 13 12 11 11 11 11 11 12 12 12 13 13 13 13 13 14 14 15 16 16 16 16 16 15 16 18 17
19 21 21 18 17 17 18 18 18 17 17 17 16 15 14 13 13 12 11 11 11 12 12 12 12 12 13 13 13 13 13 13 14 15 16 16 15 14 13 11 13 16 16
21 22 21 19 18 18 18 18 18 17 17 16 16 15 14 13 13 12 12 11 12 12 12 12 12 12 12 12 12 12 12 12 13 12 12 14 15 13 13 14 17 16 16
22 22 21 21 19 18 18 18 17 17 17 16 15 14 14 13 13 12 12 12 12 12 12 12 12 11 11 11 11 11 11 11 10 8 9 12 13 14 13 14 15 15 15
20 21 21 22 20 19 18 18 17 17 16 16 15 14 14 13 12 12 12 12 12 12 11 11 11 11 10 10 10 10 10 10 7 5 10 11 12 13 13 14 14 14 14
20 21 23 22 20 19 18 18 17 17 16 15 14 14 13 13 12 12 11 11 12 11 11 11 10 9 9 9 8 8 8 7 7 8 9 10 12 12 12 13 13 13 13
20 20 23 22 20 19 18 18 17 16 16 15 14 13 12 12 12 11 11 11 11 11 11 10 9 9 8 8 7 7 6 3 3 8 7 9 11 12 11 12 11 12 12
20 20 22 21 20 19 18 17 17 16 16 15 14 13 12 12 12 11 11 11 11 10 10 9 8 7 7 6 6 6 5 4 6 7 7 9 12 10 11 11 11 11 11
19 19 20 21 20 19 18 17 17 16 15 15 13 12 12 12 11 11 10 10 10 10 9 8 7 7 6 5 5 6 5 3 3 6 7 9 11 10 10 10 10 10 10
18 18 18 19 19 19 18 17 17 16 15 14 13 12 12 12 11 10 10 10 9 8 8 7 7 6 6 5 5 6 5 6 4 7 6 10 10 9 10 9 9 9 9
17 16 17 17 17 17 17 18 17 16 15 14 13 12 11 10 11 10 10 9 8 7 7 6 6 5 4 7 6 5 7 4 5 5 6 12 9 8 9 9 9 9 9
18 17 15 16 15 15 15 16 14 14 14 12 11 12 9 7 6 8 11 8 7 7 7 6 4 5 6 6 9 8 4 3 4 5 9 11 8 7 8 7 7 8 8
19 17 16 15 15 14 11 13 11 10 11 10 11 10 8 8 7 7 7 8 7 6 5 6 5 2 1 2 1 3 2 2 3 5 10 10 8 7 7 7 7 7 7
19 18 16 15 14 12 11 11 10 10 10 9 10 10 8 6 5 6 4 4 4 4 2 2 2 2 1 2 1 2 3 2 3 4 9 9 7 8 8 7 7 7 7
18 17 15 15 14 12 10 9 10 9 10 10 9 9 8 6 5 5 4 3 2 2 3 2 2 2 2 2 2 2 2 2 2 3 8 9 7 7 7 8 8 7 8
18 18 16 15 14 12 10 9 8 9 9 10 9 9 8 6 5 5 4 3 2 2 1 1 2 2 2 2 2 3 2 3 4 2 5 9 8 7 6 7 8 8 8
17 17 16 15 14 14 12 11 9 9 10 9 9 9 9 7 6 5 4 3 3 2 3 2 2 2 2 3 3 3 3 2 3 3 3 4 7 9 7 7 7 7 8
15 16 16 14 15 14 11 10 8 9 9 8 9 9 9 7 7 5 4 3 3 3 3 2 2 2 2 2 3 2 3 3 3 3 3 4 4 6 8 8 7 7 7
14 14 16 16 15 14 12 9 8 8 8 8 9 8 9 8 7 6 4 4 5 3 3 2 2 2 3 3 4 3 3 3 3 3 2 3 4 4 5 9 8 7 7
13 13 15 15 15 13 11 9 7 8 7 8 8 8 9 8 8 6 5 5 5 3 3 2 2 1 2 3 3 3 2 3 2 3 3 3 4 4 4 5 7 7 7
12 13 14 15 15 13 11 10 10 9 7 7 7 9 9 9 8 6 5 5 4 3 3 4 4 5 4 3 3 4 3 3 3 3 2 2 4 3 3 3 4 4 7
13 13 14 15 15 14 12 10 8 8 7 6 7 8 10 9 9 8 6 5 5 4 4 4 4 3 4 4 3 4 4 5 3 3 3 3 2 3 3 3 3 3 3
14 14 14 15 15 14 13 10 8 7 7 7 8 7 8 9 9 7 7 5 5 5 5 5 5 5 4 4 4 3 3 3 5 5 3 3 2 2 2 3 4 4 4
13 14 14 15 15 15 14 13 14 11 10 9 8 7 8 9 9 8 8 6 5 4 4 6 5 4 4 4 4 3 3 3 2 4 5 5 3 3 1 1 3 4 4
13 13 13 14 14 15 15 15 14 12 9 8 9 9 9 8 9 9 8 7 6 5 4 3 4 4 4 4 4 4 4 3 4 3 3 4 5 4 3 2 2 2 3
12 12 13 13 14 15 15 15 14 13 12 11 11 11 9 8 8 9 9 7 7 5 5 5 4 5 3 3 3 4 4 4 4 4 3 5 4 4 3 2 3 3 3
Wind_Direction
159 149 147 151 147 143 140 138 136 135 135 134 133 131 129 125 121 116 113 109 106 104 100 97 96 97 95 96 98 100 102 104 106 107 107 106 108 109 113 118 119 109 111
153 148 148 151 148 144 140 138 136 134 134 134 133 132 130 128 124 120 116 112 109 105 102 100 98 98 97 98 99 101 104 107 109 111 114 111 109 110 110 105 99 109 115
150 147 152 151 147 144 140 138 137 136 135 134 134 133 130 128 124 120 116 112 108 104 102 100 99 98 98 99 100 103 104 107 111 122 135 120 114 111 108 104 106 114 114
150 150 154 149 149 145 142 140 139 138 137 135 134 133 129 126 122 118 115 110 107 105 103 101 101 100 100 100 102 105 106 108 118 157 132 117 119 116 116 115 116 115 115
150 149 148 152 150 148 145 143 141 139 138 137 135 132 129 126 123 118 114 112 109 107 105 103 102 102 102 102 104 109 111 116 143 162 107 110 112 119 120 119 120 119 118
151 152 149 155 151 149 147 145 143 141 139 138 136 133 130 126 122 118 116 114 112 109 106 103 102 102 103 103 106 112 118 137 185 112 114 119 118 125 124 123 122 122 121
155 153 150 155 153 152 150 148 145 143 141 139 137 134 129 125 122 119 116 114 112 109 106 103 99 99 100 102 105 114 131 180 128 112 121 116 118 129 129 127 126 126 124
157 155 150 156 155 154 153 151 148 146 143 141 138 134 129 124 121 119 116 115 112 110 108 103 99 96 95 96 99 112 143 219 134 122 119 114 118 132 131 130 130 130 129
160 157 155 159 159 157 156 154 151 148 145 142 139 135 131 127 123 121 119 117 115 113 110 106 100 96 92 94 100 111 138 256 143 122 124 118 128 138 136 134 136 135 135
165 161 160 162 160 162 160 157 152 149 147 144 143 140 136 134 130 129 134 120 118 116 111 106 102 99 99 102 110 122 158 216 143 131 124 122 136 145 144 143 143 143 142
169 166 166 163 164 165 161 156 156 153 151 152 151 146 157 155 144 151 113 119 123 119 111 105 102 109 133 136 130 151 194 196 130 117 109 118 146 154 152 152 152 152 152
174 172 170 166 165 166 161 158 163 162 159 168 155 159 162 143 144 130 120 125 124 125 127 118 127 174 217 164 153 189 189 159 145 135 114 130 153 158 154 156 157 159 160
174 173 172 168 167 168 160 163 166 162 161 166 158 159 152 155 152 146 148 146 146 159 151 141 184 186 167 93 173 173 116 165 151 130 123 142 158 159 161 166 165 164 161
175 176 174 169 171 171 166 165 166 164 165 163 159 167 160 163 157 147 155 147 163 153 133 167 150 126 121 144 172 159 157 173 138 108 120 145 163 166 170 174 175 174 167
176 176 174 171 171 170 169 173 170 168 167 161 161 168 167 167 163 151 146 154 178 149 164 182 164 139 169 171 170 155 140 121 125 133 125 144 161 171 177 179 182 184 182
180 178 175 174 174 174 173 174 170 169 166 163 165 167 174 171 163 164 166 164 166 176 129 188 152 171 182 146 159 143 150 129 123 144 141 146 156 169 181 181 184 188 190
180 179 175 176 175 178 177 178 174 171 169 169 165 165 174 175 167 175 165 174 162 150 158 182 169 186 177 166 148 140 144 136 128 132 141 155 157 161 172 179 183 190 198
179 179 178 178 176 176 178 179 175 174 171 171 168 167 174 172 171 181 171 168 160 177 180 162 206 196 169 172 151 152 145 143 139 152 157 161 164 161 163 171 178 186 199
181 180 179 179 177 177 174 175 178 176 175 173 171 171 171 174 174 185 177 152 182 185 189 202 154 215 170 174 166 157 161 150 152 155 150 158 154 167 161 161 175 187 194
183 182 182 180 180 177 172 170 173 175 176 176 173 172 170 173 178 186 179 173 193 186 185 175 154 185 186 190 165 135 149 144 160 144 171 152 161 171 172 165 179 182 187
183 184 183 182 182 176 175 177 175 175 174 175 174 170 175 174 175 192 184 174 202 185 192 186 189 174 187 180 181 166 153 146 132 144 148 157 150 157 159 171 195 187 178
185 185 184 186 183 182 178 176 174 166 170 171 172 169 178 178 181 189 189 189 188 177 188 190 208 214 183 202 223 198 181 164 172 150 154 156 143 149 158 157 153 192 218
188 188 187 186 183 182 174 164 159 157 168 170 173 175 181 184 186 188 188 197 186 202 185 196 201 217 203 196 237 247 225 189 159 160 158 148 149 155 156 145 164 173 195
190 190 188 185 182 181 175 174 175 181 182 181 177 174 176 186 188 187 189 191 195 198 175 199 193 206 220 205 191 249 309 2 245 168 175 168 167 181 167 191 161 169 188
186 185 184 183 181 179 180 181 184 188 185 173 173 169 179 184 191 190 188 190 193 199 187 199 176 220 219 231 211 200 207 214 254 254 184 177 185 183 177 191 182 176 170
183 180 180 179 180 180 183 185 189 186 179 172 176 176 184 183 189 189 190 191 196 196 185 193 196 201 231 237 247 227 222 223 225 232 221 212 203 186 189 195 207 187 190
Height
1524 1526 1527 1531 1533 1536 1538 1540 1541 1543 1545 1546 1547 1548 1549 1550 1551 1552 1553 1554 1555 1555 1556 1557 1557 1558 1558 1558 1559 1559 1559 1560 1560 1561 1562 1562 1563 1564 1564 1565 1567 1567 1567
1522 1526 1528 1531 1534 1537 1539 1541 1543 1544 1546 1547 1549 1550 1551 1552 1553 1554 1555 1555 1556 1557 1558 1559 1559 1560 1560 1560 1561 1561 1562 1562 1563 1563 1564 1565 1565 1566 1567 1568 1569 1569 1570
1522 1525 1528 1532 1535 1538 1540 1542 1544 1546 1547 1549 1550 1551 1552 1553 1554 1555 1556 1557 1558 1559 1560 1560 1561 1562 1562 1563 1563 1564 1564 1565 1565 1566 1567 1569 1568 1569 1570 1570 1571 1572 1572
1523 1526 1530 1532 1536 1539 1541 1543 1545 1547 1549 1550 1551 1553 1554 1555 1556 1557 1558 1559 1560 1561 1562 1562 1563 1564 1564 1565 1565 1566 1566 1567 1568 1569 1571 1572 1572 1571 1572 1573 1574 1574 1575
1524 1528 1530 1533 1537 1540 1542 1544 1546 1548 1550 1551 1553 1554 1556 1557 1558 1559 1560 1560 1561 1562 1563 1564 1565 1565 1566 1567 1567 1568 1569 1569 1570 1572 1573 1574 1574 1574 1574 1575 1576 1577 1578
1524 1528 1530 1534 1537 1541 1543 1546 1548 1549 1551 1553 1554 1556 1557 1558 1559 1560 1561 1562 1563 1564 1565 1566 1567 1567 1568 1569 1569 1570 1571 1571 1573 1575 1575 1575 1575 1575 1576 1577 1578 1579 1580
1526 1530 1531 1535 1538 1541 1544 1547 1549 1551 1552 1554 1556 1557 1559 1560 1561 1562 1563 1564 1565 1566 1567 1568 1568 1569 1570 1571 1572 1572 1573 1573 1576 1577 1577 1577 1577 1577 1578 1579 1580 1581 1582
1527 1531 1532 1535 1539 1542 1545 1547 1549 1551 1554 1555 1557 1558 1560 1561 1562 1563 1564 1565 1566 1567 1568 1569 1570 1571 1572 1573 1573 1574 1574 1575 1578 1579 1579 1579 1578 1579 1580 1581 1582 1583 1584
1528 1532 1533 1536 1539 1542 1545 1548 1550 1552 1554 1556 1558 1560 1561 1562 1564 1565 1566 1567 1568 1569 1570 1570 1572 1573 1573 1574 1575 1576 1576 1577 1580 1580 1581 1580 1580 1581 1582 1583 1584 1585 1585
1529 1532 1534 1537 1540 1543 1546 1548 1551 1553 1555 1557 1559 1561 1562 1564 1565 1566 1567 1568 1569 1570 1571 1572 1573 1574 1575 1576 1576 1577 1578 1578 1582 1582 1582 1581 1581 1582 1583 1584 1585 1586 1587
1528 1531 1534 1538 1540 1543 1547 1548 1551 1553 1556 1558 1560 1561 1563 1566 1567 1568 1569 1569 1570 1571 1572 1573 1574 1575 1576 1577 1577 1578 1579 1581 1582 1583 1583 1582 1582 1583 1584 1585 1586 1587 1588
1526 1530 1533 1536 1539 1543 1547 1548 1552 1555 1556 1559 1561 1562 1565 1566 1568 1570 1569 1570 1571 1572 1573 1574 1575 1576 1577 1579 1579 1579 1581 1582 1583 1583 1582 1582 1583 1584 1585 1586 1587 1588 1589
1523 1528 1532 1535 1538 1542 1545 1548 1552 1555 1556 1559 1561 1562 1565 1566 1568 1570 1571 1571 1572 1573 1575 1575 1576 1578 1579 1579 1580 1581 1581 1582 1583 1584 1583 1583 1583 1584 1585 1587 1588 1589 1590
1521 1525 1530 1533 1537 1541 1544 1548 1550 1554 1556 1559 1560 1562 1565 1567 1568 1570 1571 1572 1573 1574 1574 1576 1576 1577 1578 1578 1579 1581 1581 1582 1583 1584 1582 1583 1584 1585 1586 1587 1588 1589 1590
1519 1523 1527 1531 1535 1539 1542 1546 1550 1553 1556 1558 1560 1562 1564 1567 1568 1569 1570 1571 1573 1574 1575 1575 1576 1576 1577 1578 1579 1580 1581 1582 1582 1583 1583 1583 1584 1584 1585 1586 1587 1589 1590
1515 1520 1525 1529 1533 1537 1541 1544 1548 1552 1554 1558 1559 1562 1564 1566 1567 1569 1570 1571 1572 1573 1574 1575 1576 1576 1577 1578 1579 1579 1580 1581 1581 1582 1583 1583 1583 1584 1585 1586 1587 1588 1589
1513 1518 1522 1527 1531 1535 1540 1544 1548 1551 1554 1556 1559 1561 1563 1565 1567 1568 1570 1571 1572 1572 1573 1574 1575 1576 1577 1578 1578 1579 1580 1580 1581 1581 1583 1583 1584 1584 1584 1585 1586 1587 1588
1512 1516 1520 1525 1529 1533 1538 1543 1547 1550 1553 1555 1558 1560 1562 1564 1566 1568 1569 1570 1571 1572 1573 1574 1575 1576 1576 1577 1578 1579 1579 1580 1580 1581 1582 1583 1583 1584 1584 1584 1585 1586 1587
1510 1514 1518 1523 1527 1531 1536 1541 1545 1548 1551 1554 1557 1560 1562 1563 1565 1567 1569 1569 1570 1571 1573 1574 1574 1575 1576 1577 1577 1578 1579 1579 1580 1581 1582 1583 1583 1584 1584 1584 1585 1586 1587
1509 1513 1516 1521 1525 1530 1534 1539 1543 1546 1550 1553 1556 1559 1561 1563 1564 1566 1568 1568 1570 1571 1572 1572 1573 1573 1575 1576 1577 1578 1579 1579 1580 1580 1581 1582 1583 1583 1584 1584 1584 1585 1585
1507 1510 1514 1518 1522 1527 1531 1536 1540 1544 1548 1552 1555 1557 1559 1562 1563 1565 1567 1567 1568 1570 1571 1571 1572 1573 1574 1575 1577 1578 1578 1579 1579 1580 1581 1582 1582 1583 1583 1583 1584 1584 1585
1505 1508 1512 1516 1520 1524 1529 1534 1539 1543 1547 1550 1553 1556 1558 1560 1562 1564 1565 1566 1567 1568 1569 1570 1571 1573 1574 1575 1576 1577 1578 1579 1579 1580 1580 1581 1582 1582 1582 1583 1582 1583 1584
1503 1506 1510 1514 1518 1522 1527 1532 1537 1541 1545 1548 1551 1554 1556 1559 1560 1562 1563 1565 1565 1567 1568 1569 1570 1572 1573 1574 1575 1576 1577 1576 1578 1580 1580 1580 1581 1581 1582 1582 1582 1582 1582
1501 1504 1508 1511 1516 1520 1524 1529 1534 1538 1542 1546 1549 1552 1555 1557 1559 1561 1562 1563 1564 1566 1567 1568 1569 1571 1572 1573 1574 1574 1576 1576 1577 1578 1580 1580 1580 1580 1581 1582 1581 1581 1581
1499 1502 1505 1508 1513 1517 1522 1527 1532 1537 1541 1544 1547 1550 1553 1555 1557 1559 1560 1561 1562 1565 1566 1567 1567 1569 1571 1572 1573 1574 1575 1576 1577 1577 1578 1579 1580 1580 1580 1580 1581 1581 1580
1497 1500 1503 1507 1511 1515 1520 1525 1530 1534 1538 1542 1545 1548 1551 1554 1556 1557 1558 1559 1561 1563 1564 1565 1566 1568 1569 1570 1572 1573 1574 1575 1576 1576 1577 1578 1578 1579 1579 1579 1579 1579 1579